TimeEDT,TemperatureF,Dew PointF,Humidity,Sea Level PressureIn,VisibilityMPH,Wind Direction,Wind SpeedMPH,Gust SpeedMPH,PrecipitationIn,Events,Conditions,WindDirDegrees,DateUTC
12:15 AM,55.4,50.0,82,30.00,10.0,SE,11.5,-,N/A,,Clear,140,2012-09-18 04:15:00
12:35 AM,55.4,51.8,88,30.00,10.0,SE,12.7,-,N/A,,Clear,140,2012-09-18 04:35:00
12:55 AM,55.4,51.8,88,30.01,10.0,ESE,6.9,-,N/A,,Clear,120,2012-09-18 04:55:00
1:55 AM,55.4,50.0,82,30.00,10.0,SE,10.4,-,N/A,,Clear,140,2012-09-18 05:55:00
2:15 AM,55.4,50.0,82,30.00,10.0,SE,11.5,-,N/A,,Clear,130,2012-09-18 06:15:00
2:35 AM,55.4,50.0,82,29.99,10.0,SE,11.5,-,N/A,,Clear,130,2012-09-18 06:35:00
2:55 AM,55.4,51.8,88,29.99,10.0,SE,6.9,-,N/A,,Clear,130,2012-09-18 06:55:00
3:35 AM,55.4,50.0,82,29.98,10.0,SE,9.2,-,N/A,,Clear,130,2012-09-18 07:35:00
4:15 AM,53.6,50.0,88,29.95,10.0,SE,11.5,-,N/A,,Clear,130,2012-09-18 08:15:00
4:35 AM,55.4,50.0,82,29.95,10.0,SE,9.2,16.1,N/A,,Clear,140,2012-09-18 08:35:00
5:15 AM,57.2,50.0,77,29.94,10.0,SE,11.5,-,N/A,,Clear,130,2012-09-18 09:15:00
5:35 AM,57.2,50.0,77,29.93,10.0,ESE,12.7,-,N/A,,Clear,120,2012-09-18 09:35:00
6:15 AM,57.2,50.0,77,29.92,10.0,SE,12.7,17.3,N/A,,Mostly Cloudy,130,2012-09-18 10:15:00
6:35 AM,59.0,48.2,67,29.92,10.0,SSE,15.0,-,N/A,,Overcast,150,2012-09-18 10:35:00
6:55 AM,57.2,50.0,77,29.92,10.0,SE,13.8,19.6,N/A,,Overcast,130,2012-09-18 10:55:00
7:35 AM,59.0,50.0,72,29.91,10.0,South,9.2,17.3,N/A,,Mostly Cloudy,170,2012-09-18 11:35:00
7:55 AM,60.8,51.8,72,29.92,10.0,SE,16.1,20.7,N/A,,Mostly Cloudy,140,2012-09-18 11:55:00
8:15 AM,60.8,51.8,72,29.92,10.0,SE,11.5,19.6,N/A,,Overcast,130,2012-09-18 12:15:00
8:35 AM,60.8,53.6,77,29.91,10.0,SE,16.1,-,N/A,,Overcast,130,2012-09-18 12:35:00
8:55 AM,60.8,55.4,82,29.91,10.0,SE,12.7,-,N/A,,Overcast,130,2012-09-18 12:55:00
9:15 AM,60.8,57.2,88,29.90,9.0,SE,9.2,-,N/A,,Overcast,140,2012-09-18 13:15:00
9:35 AM,60.8,57.2,88,29.89,10.0,SE,18.4,25.3,N/A,,Overcast,140,2012-09-18 13:35:00
9:55 AM,60.8,57.2,88,29.87,10.0,SSE,13.8,20.7,0.02,,Overcast,160,2012-09-18 13:55:00
10:15 AM,60.8,57.2,88,29.87,10.0,SSE,13.8,21.9,0.04,,Overcast,150,2012-09-18 14:15:00
10:35 AM,60.8,57.2,88,29.85,9.0,SE,13.8,19.6,0.09,,Overcast,140,2012-09-18 14:35:00
10:55 AM,59.0,57.2,94,29.83,10.0,SE,15.0,-,0.11,,Overcast,140,2012-09-18 14:55:00
11:15 AM,60.8,57.2,88,29.82,8.0,SSE,16.1,23.0,0.05,,Overcast,150,2012-09-18 15:15:00
11:35 AM,60.8,57.2,88,29.81,10.0,SSE,15.0,19.6,0.09,,Overcast,150,2012-09-18 15:35:00
11:55 AM,60.8,57.2,88,29.80,10.0,SE,16.1,-,0.11,,Overcast,140,2012-09-18 15:55:00
12:15 PM,60.8,59.0,94,29.79,10.0,SE,13.8,-,0.01,,Overcast,140,2012-09-18 16:15:00
12:35 PM,62.6,60.8,94,29.77,10.0,SSE,10.4,17.3,0.02,,Overcast,150,2012-09-18 16:35:00
12:55 PM,62.6,60.8,94,29.77,10.0,SSE,5.8,-,0.02,,Overcast,160,2012-09-18 16:55:00
1:15 PM,62.6,60.8,94,29.76,9.0,SSW,5.8,-,0.01,,Overcast,210,2012-09-18 17:15:00
1:35 PM,62.6,60.8,94,29.75,9.0,SW,3.5,-,0.03,,Overcast,230,2012-09-18 17:35:00
1:55 PM,62.6,60.8,94,29.73,10.0,South,3.5,-,0.05,,Overcast,190,2012-09-18 17:55:00
2:15 PM,64.4,62.6,94,29.71,10.0,SSE,17.3,21.9,0.01,,Overcast,150,2012-09-18 18:15:00
2:35 PM,66.2,62.6,88,29.69,10.0,SE,16.1,23.0,0.01,,Overcast,130,2012-09-18 18:35:00
2:55 PM,66.2,64.4,94,29.67,10.0,SE,16.1,21.9,0.02,,Overcast,140,2012-09-18 18:55:00
3:15 PM,66.2,64.4,94,29.67,10.0,SSE,11.5,-,0.01,,Overcast,160,2012-09-18 19:15:00
3:35 PM,66.2,64.4,94,29.65,10.0,SE,17.3,25.3,0.03,,Overcast,140,2012-09-18 19:35:00
3:55 PM,66.2,64.4,94,29.63,10.0,SE,17.3,20.7,0.04,,Overcast,140,2012-09-18 19:55:00
4:15 PM,66.2,64.4,94,29.61,10.0,SSE,19.6,24.2,0.01,,Overcast,150,2012-09-18 20:15:00
4:35 PM,66.2,64.4,94,29.60,10.0,SSE,16.1,29.9,0.03,,Overcast,150,2012-09-18 20:35:00
4:55 PM,66.2,64.4,94,29.61,10.0,SSE,13.8,24.2,0.04,,Mostly Cloudy,160,2012-09-18 20:55:00
5:15 PM,66.2,64.4,94,29.60,10.0,SSE,18.4,21.9,0.01,,Overcast,150,2012-09-18 21:15:00
6:15 PM,68.0,64.4,88,29.59,4.0,South,15.0,26.5,N/A,,Mostly Cloudy,170,2012-09-18 22:15:00
6:35 PM,66.2,64.4,94,29.59,5.0,SSE,11.5,20.7,N/A,,Overcast,150,2012-09-18 22:35:00
7:15 PM,68.0,66.2,94,29.56,10.0,SSE,12.7,-,N/A,,Overcast,150,2012-09-18 23:15:00
7:35 PM,68.0,66.2,94,29.56,10.0,SSE,13.8,18.4,N/A,,Overcast,160,2012-09-18 23:35:00
8:15 PM,68.0,66.2,94,29.57,5.0,South,8.1,-,N/A,,Overcast,190,2012-09-19 00:15:00
8:35 PM,66.2,66.2,100,29.58,8.0,South,12.7,18.4,N/A,,Overcast,190,2012-09-19 00:35:00
8:55 PM,68.0,66.2,94,29.58,10.0,South,6.9,-,N/A,,Overcast,190,2012-09-19 00:55:00
9:15 PM,66.2,66.2,100,29.60,10.0,SSW,4.6,-,N/A,,Overcast,200,2012-09-19 01:15:00
9:35 PM,66.2,64.4,94,29.61,6.0,WSW,8.1,-,N/A,,Overcast,250,2012-09-19 01:35:00
9:55 PM,66.2,64.4,94,29.61,8.0,SW,5.8,-,0.02,,Mostly Cloudy,230,2012-09-19 01:55:00
10:15 PM,64.4,62.6,94,29.61,10.0,SSE,9.2,-,N/A,,Overcast,160,2012-09-19 02:15:00
10:35 PM,64.4,62.6,94,29.62,10.0,SSW,6.9,-,0.01,,Overcast,200,2012-09-19 02:35:00
10:55 PM,64.4,62.6,94,29.62,10.0,South,5.8,-,0.01,,Overcast,190,2012-09-19 02:55:00
11:15 PM,64.4,62.6,94,29.61,10.0,SE,4.6,-,N/A,,Overcast,130,2012-09-19 03:15:00